Location: Apeadero de Los Molinos-Guadarrama
(40.7091°N, 4.0689°W)
Time: 12:21:24
(UTC+00:00)

ATLAS 2AS CENTAUR R/B - Pass Details

Date: 14 May 2021
Orbit: 949 x 1263 km, 63.7° (Epoch: 07 May)

Event Time Altitude Azimuth Distance (km) Brightness Sun altitude
Rises 20:59:38 0° 328° (NNW) 4,107 7.3 -15.5°
Reaches altitude 10° 21:02:46 10° 337° (NNW) 3,097 6.2 -15.9°
Maximum altitude 21:09:28 36° 42° (NE) 1,691 3.8 -16.8°
Enters shadow 21:13:56 18° 98° (E) 2,366 4.1 -17.4°
